Location: ???? ????
(41.4149°N, 22.8816°E)
Time: 14:42:57
(UTC+00:00)

CZ-2C R/B - Pass Details

Date: 14 July 2020
Orbit: 667 x 785 km, 98.2° (Epoch: 03 August)

Event Time Altitude Azimuth Distance (km) Brightness Sun altitude
Rises 02:15:16 0° 17° (NNE) 3,122 6.7 -8.9°
Reaches altitude 10° 02:17:37 10° 22° (NNE) 2,180 5.9 -8.5°
Maximum altitude 02:22:17 55° 100° (E) 830 3.0 -7.8°
Drops below altitude 10° 02:26:48 10° 178° (S) 2,107 4.5 -7.2°
Sets 02:29:02 0° 183° (S) 3,007 5.2 -6.8°
